Vorticity
17 20 75 9 -4 25 14 2 -10 13 2 -1 11 10 3 2 3 0 -1 -0 2 3 5 4 5 5 6 4 6 -0 8 11
10 19 6 6 20 -42 18 -1 9 9 1 10 36 30 -1 2 -3 -0 3 1 3 8 11 2 1 4 5 -1 3 6 1 6
9 15 39 25 28 -27 16 22 -1 4 11 -1 26 7 7 0 3 2 0 1 3 7 5 4 2 4 3 4 5 8 1 6
7 14 18 4 7 12 29 7 10 15 11 0 12 19 -2 1 2 1 0 1 5 7 5 8 5 2 4 6 5 8 2 1
11 7 16 17 1 -2 14 -3 -5 -11 5 18 7 39 3 0 2 2 0 0 8 7 5 2 3 1 7 2 7 3 9 16
13 6 13 7 12 5 18 -13 41 4 14 14 5 27 5 -4 5 2 1 -3 6 3 -0 1 4 3 1 4 14 7 6 12
8 5 33 3 11 5 14 28 -13 -9 12 -2 13 7 -3 5 3 -2 0 7 6 -1 3 7 5 6 10 5 10 4 4 16
7 10 -2 28 23 12 5 1 -5 27 -7 4 6 21 -17 -12 4 2 2 3 -3 -2 10 6 -1 -3 1 4 9 5 9 9
8 11 8 -6 13 20 13 -20 8 3 -3 17 10 12 18 18 5 1 1 -5 0 2 1 13 11 -6 5 3 8 10 8 11
10 7 6 1 8 19 33 12 2 4 19 -9 -5 -7 4 15 -5 3 -4 3 5 5 5 10 10 13 0 9 10 11 14 14
10 9 6 9 49 7 35 28 11 5 13 21 9 -4 26 -3 5 0 9 4 7 10 -1 2 4 6 6 9 13 15 20 16
12 13 7 0 47 26 40 37 27 21 4 13 -1 22 1 18 -0 3 1 1 6 -0 2 -0 5 5 6 4 12 16 13 6
17 6 9 7 13 5 47 18 18 12 16 11 19 11 4 2 1 1 5 4 11 6 8 6 5 10 6 15 14 3 20 5
16 8 10 8 -4 25 16 18 -2 11 11 16 14 7 4 6 11 4 -1 6 1 -4 1 4 5 10 11 12 23 8 4 4
15 10 7 7 12 15 16 9 27 -17 21 17 14 2 1 6 7 4 3 6 -2 2 6 3 12 6 23 9 10 2 4 5
17 9 8 13 13 2 21 2 13 3 10 26 7 7 6 9 0 -4 3 8 8 9 8 11 14 19 18 8 4 3 3 3
16 17 14 17 18 4 7 6 -13 20 -14 4 4 5 6 -1 -5 4 -11 12 15 3 18 23 16 14 5 2 4 2 -3 12
3 8 14 7 13 23 26 17 13 13 5 -13 11 18 8 7 1 3 23 14 22 18 8 8 6 4 3 2 4 1 -0 5
10 4 3 8 10 14 14 25 34 29 26 28 28 25 36 28 32 25 17 10 6 3 5 5 4 4 2 5 6 3 2 2
13 10 9 5 4 7 5 4 7 7 9 8 8 8 8 8 8 7 8 6 5 6 6 9 10 8 8 2 1 2 7 10
Height
5736 5732 5725 5730 5747 5754 5761 5768 5775 5780 5785 5788 5788 5794 5799 5805 5808 5808 5810 5812 5815 5817 5819 5821 5822 5825 5825 5828 5829 5829 5828 5828
5735 5728 5727 5734 5742 5746 5758 5762 5768 5775 5780 5784 5788 5790 5795 5801 5804 5805 5807 5810 5812 5814 5816 5818 5820 5821 5822 5824 5825 5826 5825 5824
5732 5730 5727 5733 5736 5752 5757 5753 5758 5769 5775 5780 5784 5787 5792 5796 5800 5803 5805 5807 5810 5811 5812 5815 5816 5816 5819 5820 5820 5820 5819 5819
5728 5730 5731 5733 5742 5747 5754 5753 5762 5765 5770 5775 5780 5784 5789 5794 5796 5799 5802 5804 5806 5808 5809 5810 5811 5812 5813 5816 5815 5815 5816 5815
5730 5730 5730 5733 5737 5745 5748 5756 5757 5761 5766 5772 5777 5779 5785 5790 5793 5795 5799 5801 5803 5804 5804 5806 5806 5808 5809 5809 5809 5809 5810 5812
5728 5728 5729 5731 5735 5738 5743 5750 5752 5757 5764 5768 5773 5776 5782 5787 5790 5793 5795 5797 5799 5800 5802 5802 5804 5803 5803 5804 5805 5805 5806 5808
5727 5726 5725 5726 5729 5733 5738 5742 5749 5752 5759 5764 5769 5773 5779 5783 5787 5788 5791 5794 5796 5797 5798 5798 5799 5797 5800 5801 5800 5800 5801 5803
5721 5723 5723 5723 5725 5728 5732 5735 5742 5746 5753 5760 5764 5769 5774 5778 5782 5784 5787 5791 5791 5794 5795 5794 5794 5796 5795 5797 5795 5795 5796 5797
5720 5719 5717 5717 5717 5720 5722 5726 5734 5741 5747 5754 5760 5765 5769 5772 5778 5780 5784 5785 5787 5789 5790 5791 5791 5790 5793 5792 5790 5792 5792 5793
5715 5716 5715 5714 5712 5712 5714 5716 5726 5735 5741 5748 5754 5759 5764 5769 5772 5775 5778 5781 5783 5785 5786 5787 5786 5788 5785 5786 5785 5786 5787 5786
5711 5712 5713 5712 5708 5705 5705 5711 5719 5729 5736 5742 5749 5753 5759 5764 5767 5769 5773 5777 5779 5781 5781 5781 5781 5780 5782 5781 5782 5782 5782 5782
5708 5709 5709 5705 5702 5699 5695 5703 5714 5723 5732 5738 5742 5747 5753 5757 5761 5765 5768 5772 5774 5775 5775 5775 5776 5776 5775 5775 5775 5776 5777 5779
5706 5707 5707 5705 5701 5698 5697 5702 5711 5722 5728 5734 5738 5742 5747 5752 5757 5760 5765 5767 5768 5769 5769 5770 5770 5770 5769 5768 5769 5770 5772 5774
5703 5706 5706 5705 5704 5700 5701 5707 5714 5719 5724 5729 5734 5740 5744 5749 5754 5757 5759 5761 5762 5763 5764 5765 5764 5764 5764 5763 5765 5767 5768 5769
5704 5704 5705 5705 5707 5704 5704 5709 5712 5718 5722 5727 5732 5738 5742 5746 5750 5751 5754 5755 5757 5758 5759 5759 5759 5759 5759 5760 5761 5763 5763 5765
5705 5703 5703 5705 5707 5707 5709 5710 5713 5717 5721 5725 5730 5734 5738 5741 5744 5746 5748 5750 5752 5752 5753 5753 5754 5753 5753 5755 5757 5759 5760 5761
5706 5704 5703 5703 5705 5708 5709 5712 5713 5716 5720 5724 5728 5731 5733 5736 5738 5741 5743 5744 5744 5746 5747 5748 5748 5748 5749 5749 5752 5753 5754 5754
5707 5706 5704 5703 5704 5707 5708 5709 5712 5715 5718 5721 5723 5727 5730 5732 5734 5735 5736 5739 5740 5742 5743 5744 5746 5745 5745 5746 5748 5747 5748 5749
5706 5706 5707 5706 5706 5705 5706 5707 5710 5712 5714 5716 5719 5722 5724 5727 5729 5732 5733 5735 5737 5739 5740 5741 5740 5741 5741 5741 5740 5740 5741 5740
5705 5706 5706 5706 5707 5707 5707 5707 5709 5712 5714 5716 5717 5719 5722 5726 5726 5728 5730 5731 5733 5734 5734 5735 5734 5735 5733 5733 5733 5735 5733 5730